KN4IED-WX Weather Reports


time (UTC)temp
C
wind
direction
speed
KPH
gust
KPH
rain 1hr
cm
rain 24hr
cm
rain mn
cm
humidity
%
barometer
mb
20260509054517 13 88 1.6 3.2 0.00 0.00 0.00 94 1013.9
20260509053534 13 103 1.6 4.8 0.00 0.00 0.00 94 1014.0
20260509052531 13 72 3.2 3.2 0.00 0.00 0.00 93 1013.8
20260509051528 13 90 3.2 4.8 0.00 0.00 0.00 93 1013.8
20260509050524 13 85 3.2 4.8 0.00 0.00 0.00 93 1013.8
20260509045521 13 87 3.2 4.8 0.00 0.00 0.00 93 1014.0
20260509044538 13 77 3.2 4.8 0.00 0.00 0.00 92 1014.1
20260509043534 14 76 3.2 3.2 0.00 0.00 0.00 92 1014.3
20260509042531 14 69 1.6 3.2 0.00 0.00 0.00 91 1014.3
20260509041528 14 85 3.2 3.2 0.00 0.00 0.00 90 1014.2
20260509040544 15 72 1.6 3.2 0.00 0.00 0.00 89 1014.2
20260509035541 15 89 1.6 3.2 0.00 0.00 0.00 88 1014.5
20260509034517 15 88 1.6 4.8 0.00 0.00 0.00 87 1014.8
20260509033535 15 97 3.2 6.4 0.00 0.00 0.00 87 1014.7
20260509032531 15 105 3.2 4.8 0.00 0.00 0.00 87 1015.0
20260509031528 15 109 3.2 4.8 0.00 0.00 0.00 87 1015.1
20260509030524 15 61 1.6 3.2 0.00 0.00 0.00 87 1015.3
20260509025541 15 82 1.6 3.2 0.00 0.00 0.00 87 1015.3
20260509024518 15 108 1.6 3.2 0.00 0.00 0.00 86 1015.3
20260509023534 16 93 1.6 4.8 0.00 0.00 0.00 85 1015.1
20260509022531 16 85 1.6 3.2 0.00 0.00 0.00 84 1015.2
20260509021528 16 98 0.0 3.2 0.00 0.00 0.00 83 1014.7
20260509020524 16 108 1.6 3.2 0.00 0.00 0.00 82 1015.0
20260509015521 16 51 0.0 3.2 0.00 0.00 0.00 81 1014.8
20260509014518 16 55 0.0 3.2 0.00 0.00 0.00 81 1014.7
20260509013535 16 89 1.6 4.8 0.00 0.00 0.00 82 1015.0
20260509012551 16 106 1.6 3.2 0.00 0.00 0.00 83 1014.7
20260509011548 16 106 0.0 3.2 0.00 0.00 0.00 83 1014.6
20260509010525 16 92 1.6 3.2 0.00 0.00 0.00 81 1014.6
20260509005521 17 44 1.6 3.2 0.00 0.00 0.00 80 1014.4
20260509004518 17 93 1.6 4.8 0.00 0.00 0.00 80 1014.3
20260509003535 17 103 1.6 4.8 0.00 0.00 0.00 80 1014.4
20260509002532 17 261 1.6 4.8 0.00 0.00 0.00 76 1014.4
20260509001529 17 126 1.6 4.8 0.00 0.00 0.00 78 1014.4
20260509000545 17 94 1.6 3.2 0.00 0.00 0.00 80 1014.4
20260508235521 17 73 1.6 3.2 0.00 0.00 0.00 79 1014.4
20260508234518 18 72 1.6 3.2 0.00 0.00 0.00 77 1014.5
20260508233535 18 79 0.0 3.2 0.00 0.00 0.00 76 1014.4
20260508232532 18 82 0.0 3.2 0.00 0.00 0.00 75 1014.1
20260508231548 18 69 1.6 3.2 0.00 0.00 0.00 74 1014.1
20260508230525 18 77 0.0 3.2 0.00 0.00 0.00 71 1014.1
20260508225522 19 86 1.6 3.2 0.00 0.00 0.00 68 1014.3
20260508224518 19 108 1.6 4.8 0.00 0.00 0.00 65 1014.3
20260508223535 19 54 0.0 3.2 0.00 0.00 0.00 68 1014.3
20260508222552 20 148 1.6 3.2 0.00 0.00 0.00 66 1014.3
20260508221528 20 126 0.0 3.2 0.00 0.00 0.00 64 1014.3
20260508220525 20 184 0.0 1.6 0.00 0.00 0.00 61 1014.3
20260508215522 20 66 1.6 3.2 0.00 0.00 0.00 59 1014.4
20260508214518 20 107 0.0 3.2 0.00 0.00 0.00 56 1014.3
20260508213535 20 58 0.0 3.2 0.00 0.00 0.00 58 1014.3
20260508212531 20 181 0.0 3.2 0.00 0.00 0.00 57 1014.4
20260508211549 20 71 0.0 3.2 0.00 0.00 0.00 55 1014.3
20260508210525 20 84 0.0 3.2 0.00 0.00 0.00 55 1014.4
20260508205521 20 34 1.6 4.8 0.00 0.00 0.00 53 1014.6
20260508204518 21 17 1.6 3.2 0.00 0.00 0.00 49 1014.6
20260508203534 21 254 1.6 4.8 0.00 0.00 0.00 49 1014.4
20260508202531 21 230 3.2 8.0 0.00 0.00 0.00 46 1014.6
20260508201528 21 210 3.2 8.0 0.00 0.00 0.00 49 1014.6
20260508200524 21 186 3.2 6.4 0.00 0.00 0.00 53 1014.8
20260508195521 21 324 1.6 6.4 0.00 0.00 0.00 49 1015.0
20260508194517 21 186 3.2 4.8 0.00 0.00 0.00 46 1015.0
20260508193534 21 294 3.2 6.4 0.00 0.00 0.00 46 1015.2
20260508192551 21 154 4.8 9.7 0.00 0.00 0.00 47 1015.3
20260508191527 21 152 4.8 9.7 0.00 0.00 0.00 48 1015.6
20260508190524 21 289 1.6 4.8 0.00 0.00 0.00 49 1015.8
20260508185520 21 205 3.2 12.9 0.00 0.00 0.00 51 1015.7
20260508184517 21 175 3.2 8.0 0.00 0.00 0.00 48 1015.9
20260508183534 20 166 4.8 9.7 0.00 0.00 0.00 49 1015.8
20260508182530 21 232 4.8 11.3 0.00 0.00 0.00 49 1016.1
20260508181527 20 188 3.2 8.0 0.00 0.00 0.00 50 1016.2
20260508180524 21 64 4.8 11.3 0.00 0.00 0.00 50 1016.3
20260508175520 21 146 4.8 9.7 0.00 0.00 0.00 50 1016.5
20260508174517 20 76 4.8 12.9 0.00 0.00 0.00 53 1016.8
20260508173533 20 62 6.4 14.5 0.00 0.00 0.00 51 1016.7
20260508172530 20 195 3.2 6.4 0.00 0.00 0.00 53 1016.6
20260508171547 20 250 6.4 16.1 0.00 0.00 0.00 55 1016.9
20260508170523 20 218 6.4 12.9 0.00 0.00 0.00 54 1017.2
20260508165540 19 140 4.8 12.9 0.00 0.00 0.00 56 1017.2
20260508164517 19 76 6.4 17.7 0.00 0.00 0.00 54 1017.4
20260508163553 20 72 8.0 14.5 0.00 0.00 0.00 56 1017.5
20260508162530 18 127 4.8 16.1 0.00 0.00 0.00 59 1017.8
20260508161547 18 65 4.8 11.3 0.00 0.00 0.00 61 1017.9
20260508160524 18 89 4.8 9.7 0.00 0.00 0.00 62 1018.2
20260508155614 18 252 6.4 11.3 0.00 0.00 0.00 60 1018.3
20260508154530 18 74 4.8 12.9 0.00 0.00 0.00 61 1018.2
20260508153526 18 66 4.8 9.7 0.00 0.03 0.00 63 1018.4
20260508152521 18 60 6.4 14.5 0.00 0.03 0.00 62 1018.3
20260508151517 18 96 6.4 16.1 0.00 0.03 0.00 61 1018.6
20260508150553 17 67 4.8 12.9 0.00 0.03 0.00 60 1018.6
20260508145528 17 106 6.4 14.5 0.00 0.03 0.00 61 1018.5
20260508144524 17 83 4.8 9.7 0.00 0.03 0.00 66 1018.4
20260508143520 17 79 6.4 9.7 0.00 0.03 0.00 66 1018.3
20260508142516 16 77 6.4 11.3 0.00 0.05 0.00 67 1018.4
20260508141535 16 66 8.0 11.3 0.00 0.15 0.00 68 1018.3
20260508140530 16 86 4.8 11.3 0.00 0.25 0.00 70 1018.4
20260508135525 16 79 6.4 12.9 0.00 0.28 0.00 69 1018.7
20260508134522 15 58 4.8 9.7 0.00 0.28 0.00 70 1018.8
20260508133518 15 79 6.4 11.3 0.00 0.33 0.00 72 1018.8
20260508132535 15 88 6.4 14.5 0.00 0.36 0.00 74 1018.6
20260508131531 14 103 3.2 6.4 0.00 0.48 0.00 80 1018.6
20260508130528 13 82 3.2 4.8 0.00 0.58 0.00 84 1018.5
20260508125524 13 68 3.2 6.4 0.00 0.64 0.00 85 1018.6
20260508124520 12 55 3.2 4.8 0.00 0.71 0.00 87 1018.5
20260508123517 12 87 1.6 3.2 0.00 0.97 0.00 89 1018.2
20260508122534 12 44 1.6 4.8 0.00 1.32 0.00 89 1018.1
20260508121610 12 70 3.2 4.8 0.00 1.37 0.00 88 1017.8
20260508120526 12 66 3.2 4.8 0.00 1.40 0.00 90 1017.6
20260508115523 12 76 4.8 8.0 0.00 1.47 0.00 92 1017.5
20260508114519 11 87 3.2 4.8 0.00 1.63 0.00 98 1017.4
20260508113516 11 63 3.2 8.0 0.00 1.70 0.00 99 1017.2
20260508112533 10 69 4.8 6.4 0.00 1.80 0.00 99 1017.2
20260508111549 10 72 3.2 6.4 0.00 2.11 0.00 99 1017.0
20260508110526 10 79 4.8 6.4 0.00 2.31 0.00 99 1016.7
20260508105522 10 83 3.2 4.8 0.00 2.34 0.00 99 1016.3
20260508104518 9 87 3.2 4.8 0.00 2.44 0.00 99 1016.0
20260508103535 9 85 3.2 4.8 0.00 2.59 0.00 99 1015.7
20260508102531 9 81 3.2 6.4 0.00 2.74 0.00 99 1015.7
20260508101528 9 80 3.2 4.8 0.00 2.77 0.00 99 1015.7
20260508100524 10 82 1.6 3.2 0.00 2.79 0.00 99 1015.8
20260508095521 10 77 3.2 4.8 0.00 2.92 0.00 99 1015.4
20260508094517 10 78 3.2 4.8 0.00 2.92 0.00 99 1015.5
20260508093534 10 88 3.2 4.8 0.00 2.92 0.00 99 1015.2
20260508092530 10 83 3.2 6.4 0.00 2.92 0.00 99 1015.1
20260508091527 10 87 4.8 6.4 0.00 2.92 0.00 99 1015.2
20260508090524 10 79 3.2 6.4 0.00 2.92 0.00 99 1015.1
20260508085520 10 78 3.2 4.8 0.00 2.92 0.00 99 1015.1
20260508084515 10 81 3.2 4.8 0.00 2.92 0.00 99 1014.8
20260508083532 10 85 3.2 4.8 0.00 2.95 0.00 99 1014.8
20260508082528 10 84 3.2 4.8 0.00 2.95 0.00 99 1014.8
20260508081525 10 88 3.2 4.8 0.00 3.05 0.00 98 1014.9
20260508080521 10 88 1.6 3.2 0.00 3.07 0.00 98 1014.8
20260508075518 10 86 3.2 4.8 0.00 3.07 0.00 98 1014.9
20260508074534 11 75 3.2 4.8 0.00 3.07 0.00 98 1014.9
20260508073551 11 91 1.6 3.2 0.00 3.07 0.00 98 1015.0
20260508072527 11 120 1.6 3.2 0.00 3.07 0.00 98 1014.8
20260508071523 11 81 3.2 4.8 0.00 3.10 0.00 98 1014.7
20260508070520 11 72 3.2 4.8 0.00 3.10 0.00 98 1014.9
20260508065516 11 84 3.2 4.8 0.00 3.10 0.00 98 1014.9
20260508064533 11 80 3.2 4.8 0.00 3.12 0.00 98 1015.0
20260508063529 11 69 1.6 3.2 0.00 3.15 0.00 98 1015.0
20260508062546 11 70 1.6 3.2 0.00 3.15 0.00 98 1015.0
20260508061522 11 70 3.2 4.8 0.00 3.17 0.00 98 1015.0
20260508060519 11 80 1.6 4.8 0.00 3.25 0.00 97 1015.0
20260508055535 11 81 0.0 3.2 0.00 3.35 0.00 97 1015.1